Weather History for Jonesville, VA

Change the Weather History Date:

Wednesday, February 20, 2013

  Actual Average (KLOZ) Record (KLOZ)
Temperature  
Mean Temperature 30 °F 41 °F  
Max Temperature 37 °F 51 °F 74 °F (1986)
Min Temperature 21 °F 30 °F -6 °F (1960)
Degree Days  
Heating Degree Days 35 24  
Month to date heating degree days 527  
Since 1 July heating degree days 3090  
Cooling Degree Days 0 0  
Month to date cooling degree days 0  
Year to date cooling degree days 0  
Moisture  
Dew Point 12 °F    
Average Humidity 49    
Maximum Humidity 86    
Minimum Humidity 30    
Precipitation  
Precipitation 0.00 in 0.13 in 0.61 in (1967)
Month to date precipitation 2.61  
Year to date precipitation 6.15  
Sea Level Pressure  
Sea Level Pressure 30.19 in    
Wind  
Wind Speed 6 mph (West)    
Max Wind Speed 13 mph    
Max Gust Speed 16 mph    
Visibility 10 miles    
Events      
T = Trace of Precipitation, MM = Missing Value Source: NWS Daily Summary

Daily Weather History Graph

Daily Weather History Graph

Search for Another Location

Airport:

Trip Planner

Search our weather history database for the weather conditions in past years. The results will help you decide how hot, cold, wet, or windy it might be!

Date:

Astronomy

Feb. 20, 2013 Rise Set
Actual Time 7:14 AM EST 6:18 PM EST
Civil Twilight 6:48 AM EST 6:45 PM EST
Nautical Twilight 6:18 AM EST 7:15 PM EST
Astronomical Twilight 5:48 AM EST 7:45 PM EST
Moon 1:43 PM EST (2/20) 3:29 AM EST (2/20)
Length of Visible Light 11h 56m
Length of Day
11h 04m
Waxing Gibbous, 76% of the Moon is Illuminated
Feb 20
Waxing Gibbous
Feb 25
Full
Mar 4
Last Quarter
Mar 11
New
Mar 19
First Quarter

Hourly Weather History & Observations

Time (EST) Temp. Windchill Dew Point Humidity Pressure Visibility Wind Dir Wind Speed Gust Speed Precip Events Conditions
12:15 AM 32.0 °F 27.5 °F 15.8 °F 51% 30.15 in 10.0 mi West 4.6 mph - N/A   Clear
12:35 AM 32.0 °F 25.6 °F 15.8 °F 51% 30.15 in 10.0 mi WSW 6.9 mph - N/A   Clear
1:15 AM 32.0 °F 23.0 °F 15.8 °F 51% 30.15 in 10.0 mi West 11.5 mph - N/A   Clear
1:35 AM 32.0 °F 24.8 °F 15.8 °F 51% 30.15 in 10.0 mi West 8.1 mph - N/A   Clear
1:55 AM 30.2 °F 23.4 °F 15.8 °F 55% 30.14 in 10.0 mi West 6.9 mph - N/A   Clear
2:15 AM 30.2 °F 24.3 °F 15.8 °F 55% 30.15 in 10.0 mi WSW 5.8 mph - N/A   Clear
2:35 AM 30.2 °F 24.3 °F 15.8 °F 55% 30.16 in 10.0 mi WSW 5.8 mph - N/A   Clear
2:55 AM 30.2 °F 23.4 °F 14.0 °F 51% 30.16 in 10.0 mi West 6.9 mph - N/A   Clear
3:15 AM 30.2 °F 21.3 °F 14.0 °F 51% 30.15 in 10.0 mi West 10.4 mph - N/A   Clear
3:35 AM 28.4 °F 21.2 °F 14.0 °F 55% 30.16 in 10.0 mi West 6.9 mph - N/A   Clear
3:55 AM 28.4 °F 19.7 °F 14.0 °F 55% 30.16 in 10.0 mi West 9.2 mph - N/A   Partly Cloudy
4:15 AM 28.4 °F 23.3 °F 14.0 °F 55% 30.16 in 10.0 mi WSW 4.6 mph - N/A   Clear
4:35 AM 28.4 °F 22.2 °F 14.0 °F 55% 30.17 in 10.0 mi West 5.8 mph - N/A   Clear
4:55 AM 28.4 °F 21.2 °F 14.0 °F 55% 30.17 in 10.0 mi West 6.9 mph - N/A   Clear
5:15 AM 26.6 °F 18.2 °F 14.0 °F 59% 30.17 in 10.0 mi West 8.1 mph - N/A   Clear
5:35 AM 26.6 °F 15.7 °F 14.0 °F 59% 30.17 in 10.0 mi West 12.7 mph - N/A   Clear
5:55 AM 26.6 °F 17.5 °F 12.2 °F 55% 30.18 in 10.0 mi WSW 9.2 mph 16.1 mph N/A   Clear
6:15 AM 26.6 °F 17.5 °F 10.4 °F 51% 30.18 in 10.0 mi West 9.2 mph - N/A   Clear
6:35 AM 26.6 °F 17.5 °F 12.2 °F 55% 30.19 in 10.0 mi West 9.2 mph - N/A   Clear
7:15 AM 24.8 °F 16.9 °F 14.0 °F 64% 30.20 in 10.0 mi WSW 6.9 mph - N/A   Clear
7:35 AM 24.8 °F 16.1 °F 14.0 °F 64% 30.20 in 10.0 mi WSW 8.1 mph - N/A   Clear
7:55 AM 24.8 °F 16.9 °F 14.0 °F 64% 30.20 in 10.0 mi West 6.9 mph - N/A   Clear
8:15 AM 26.6 °F 20.0 °F 14.0 °F 59% 30.21 in 10.0 mi West 5.8 mph - N/A   Clear
8:35 AM 26.6 °F 21.2 °F 12.2 °F 55% 30.21 in 10.0 mi West 4.6 mph - N/A   Clear
8:55 AM 26.6 °F 20.0 °F 10.4 °F 51% 30.22 in 10.0 mi West 5.8 mph - N/A   Clear
9:15 AM 26.6 °F 16.8 °F 10.4 °F 51% 30.23 in 10.0 mi West 10.4 mph - N/A   Clear
9:35 AM 28.4 °F 22.2 °F 10.4 °F 47% 30.23 in 10.0 mi West 5.8 mph - N/A   Clear
10:15 AM 28.4 °F 20.4 °F 12.2 °F 51% 30.22 in 10.0 mi SW 8.1 mph - N/A   Clear
10:35 AM 30.2 °F 24.3 °F 12.2 °F 47% 30.22 in 10.0 mi WSW 5.8 mph - N/A   Clear
10:55 AM 30.2 °F 24.3 °F 10.4 °F 44% 30.23 in 10.0 mi West 5.8 mph - N/A   Clear
11:15 AM 32.0 °F 24.2 °F 10.4 °F 41% 30.23 in 10.0 mi West 9.2 mph - N/A   Clear
11:35 AM 32.0 °F 25.6 °F 10.4 °F 41% 30.23 in 10.0 mi West 6.9 mph - N/A   Clear
11:55 AM 32.0 °F 25.6 °F 10.4 °F 41% 30.23 in 10.0 mi SW 6.9 mph - N/A   Clear
12:15 PM 32.0 °F - 8.6 °F 38% 30.22 in 10.0 mi Calm Calm - N/A   Clear
12:35 PM 35.6 °F 28.6 °F 10.4 °F 35% 30.21 in 10.0 mi SW 9.2 mph - N/A   Clear
12:55 PM 35.6 °F 28.0 °F 8.6 °F 33% 30.20 in 10.0 mi WSW 10.4 mph - N/A   Clear
1:15 PM 35.6 °F 31.7 °F 8.6 °F 33% 30.19 in 10.0 mi West 4.6 mph - N/A   Clear
1:35 PM 37.4 °F 32.8 °F 8.6 °F 30% 30.19 in 10.0 mi WSW 5.8 mph - N/A   Clear
1:55 PM 37.4 °F 32.1 °F 8.6 °F 30% 30.18 in 10.0 mi West 6.9 mph - N/A   Clear
2:15 PM 37.4 °F 31.4 °F 8.6 °F 30% 30.18 in 10.0 mi West 8.1 mph - N/A   Clear
2:35 PM 37.4 °F 32.8 °F 8.6 °F 30% 30.18 in 10.0 mi West 5.8 mph - N/A   Clear
2:55 PM 37.4 °F 30.3 °F 8.6 °F 30% 30.18 in 10.0 mi West 10.4 mph - N/A   Clear
3:15 PM 37.4 °F 31.4 °F 8.6 °F 30% 30.17 in 10.0 mi WSW 8.1 mph - N/A   Clear
3:35 PM 37.4 °F 32.8 °F 8.6 °F 30% 30.17 in 10.0 mi WSW 5.8 mph - N/A   Clear
3:55 PM 37.4 °F 32.1 °F 8.6 °F 30% 30.17 in 10.0 mi West 6.9 mph - N/A   Clear
4:15 PM 37.4 °F 31.4 °F 10.4 °F 33% 30.18 in 10.0 mi West 8.1 mph - N/A   Clear
4:35 PM 37.4 °F 32.1 °F 8.6 °F 30% 30.19 in 10.0 mi West 6.9 mph - N/A   Clear
4:55 PM 35.6 °F 29.9 °F 10.4 °F 35% 30.20 in 10.0 mi WNW 6.9 mph - N/A   Clear
5:15 PM 35.6 °F 29.9 °F 10.4 °F 35% 30.20 in 10.0 mi West 6.9 mph - N/A   Clear
5:35 PM 35.6 °F 29.9 °F 10.4 °F 35% 30.21 in 10.0 mi West 6.9 mph - N/A   Clear
5:55 PM 33.8 °F 27.0 °F 10.4 °F 38% 30.21 in 10.0 mi West 8.1 mph - N/A   Clear
6:15 PM 32.0 °F 25.6 °F 10.4 °F 41% 30.21 in 10.0 mi WSW 6.9 mph - N/A   Clear
6:35 PM 32.0 °F 26.4 °F 10.4 °F 41% 30.21 in 10.0 mi WSW 5.8 mph - N/A   Clear
6:55 PM 32.0 °F 27.5 °F 10.4 °F 41% 30.21 in 10.0 mi West 4.6 mph - N/A   Clear
7:15 PM 32.0 °F 28.7 °F 10.4 °F 41% 30.22 in 10.0 mi West 3.5 mph - N/A   Partly Cloudy
7:35 PM 32.0 °F - 12.2 °F 44% 30.22 in 10.0 mi Calm Calm - N/A   Clear
7:55 PM 32.0 °F - 14.0 °F 48% 30.22 in 10.0 mi Calm Calm - N/A   Clear
8:15 PM 30.2 °F - 15.8 °F 55% 30.21 in 10.0 mi Calm Calm - N/A   Clear
8:35 PM 28.4 °F - 15.8 °F 59% 30.22 in 10.0 mi Calm Calm - N/A   Clear
8:55 PM 28.4 °F 24.6 °F 14.0 °F 55% 30.23 in 10.0 mi WNW 3.5 mph - N/A   Partly Cloudy
9:15 PM 28.4 °F - 14.0 °F 55% 30.22 in 10.0 mi Calm Calm - N/A   Partly Cloudy
9:35 PM 26.6 °F - 15.8 °F 64% 30.21 in 10.0 mi Calm Calm - N/A   Clear
9:55 PM 26.6 °F - 15.8 °F 64% 30.23 in 10.0 mi Calm Calm - N/A   Clear
10:15 PM 26.6 °F - 17.6 °F 69% 30.22 in 10.0 mi Calm Calm - N/A   Clear
10:35 PM 26.6 °F - 17.6 °F 69% 30.22 in 10.0 mi Calm Calm - N/A   Clear
10:55 PM 24.8 °F - 17.6 °F 74% 30.21 in 10.0 mi Calm Calm - N/A   Clear
11:35 PM 23.0 °F - 17.6 °F 80% 30.21 in 10.0 mi Calm Calm - N/A   Clear
11:55 PM 21.2 °F - 17.6 °F 86% 30.20 in 10.0 mi Calm Calm - N/A   Clear